Temperature
6 5 5 5 5 6 6 6 6 6 6 5 5 5 5 5 4 4 4 4 4 5 6 6 7 7 7 7 7 7 7 7 7 7 7 7 7 7 6 6 6 6 6 6
5 5 5 5 5 6 6 6 5 5 5 5 4 4 4 4 4 4 4 3 4 4 5 6 6 6 7 7 7 7 7 7 7 6 7 6 6 6 6 6 6 6 5 5
5 5 5 5 5 5 5 5 5 5 5 5 4 5 4 4 4 3 3 3 4 4 4 5 5 6 6 6 6 6 6 6 6 6 6 6 6 6 5 5 5 5 5 5
4 4 5 5 5 5 5 5 5 5 4 4 4 4 4 4 3 3 2 3 3 3 4 4 5 5 5 5 6 6 6 6 6 5 5 6 6 6 5 5 5 5 5 5
3 4 4 5 4 4 4 4 4 4 4 3 3 3 4 3 3 3 2 2 3 3 3 4 4 5 5 5 5 5 5 5 5 5 5 5 5 5 5 5 4 4 4 4
3 4 4 4 4 4 3 3 3 3 3 4 3 3 3 2 3 3 2 2 2 2 3 3 3 4 4 4 4 5 5 5 5 5 4 4 4 4 4 4 4 4 4 4
3 3 3 4 3 3 3 3 4 4 3 3 2 3 3 2 2 2 1 1 2 2 2 3 3 3 3 4 4 4 4 4 4 4 4 4 4 4 4 4 4 4 3 3
2 3 3 3 3 3 2 3 4 4 3 3 2 2 2 1 1 1 1 1 1 2 2 2 2 3 3 3 3 3 3 4 3 3 3 3 3 3 3 3 3 3 3 3
2 2 2 2 2 3 2 2 2 2 2 2 2 1 1 1 0 -0 -0 -0 0 1 2 2 2 2 2 3 3 3 3 3 3 3 3 3 3 3 3 2 2 2 2 2
1 1 2 2 2 2 2 1 1 2 3 3 2 1 2 1 0 -1 -1 -1 -1 0 1 1 1 2 2 2 3 3 3 3 2 2 2 2 2 2 2 2 2 2 2 2
1 1 1 1 1 1 1 1 1 1 1 2 2 2 1 0 -1 -1 -2 -1 -1 -1 0 1 1 1 1 2 2 2 2 2 2 2 2 2 2 1 1 1 1 1 1 1
0 -0 -0 1 0 1 1 0 0 1 1 -0 1 1 -0 -2 -2 -2 -2 -2 -1 -1 -0 -0 0 0 1 1 1 1 1 1 1 1 1 1 1 1 1 0 0 0 0 0
0 -0 0 1 1 -0 -0 -1 -1 -0 -0 -1 0 1 -1 -3 -3 -3 -3 -2 -2 -1 -1 -1 -0 -0 -0 0 0 1 1 1 1 1 1 1 0 0 0 -0 -0 -0 -1 -1
1 -1 0 1 1 -0 -1 -1 -1 -1 -0 -1 -1 -0 -1 -2 -3 -3 -3 -3 -2 -2 -2 -1 -1 -1 -1 -1 -1 -0 -0 -0 0 0 0 0 -0 -0 -0 -1 -1 -1 -1 -1
-1 -1 -1 -1 -0 -1 -1 -1 -2 -1 -1 -1 -1 -2 -1 -2 -3 -3 -3 -3 -3 -3 -2 -2 -2 -2 -2 -1 -1 -1 -1 -1 -1 -1 -0 -0 -1 -1 -1 -1 -1 -1 -2 -2
-2 -2 -2 -2 -1 -1 -2 -2 -2 -2 -2 -2 -2 -2 -3 -3 -3 -4 -4 -4 -4 -4 -3 -3 -2 -2 -2 -2 -2 -2 -2 -2 -1 -1 -1 -2 -2 -2 -2 -2 -2 -2 -2 -3
-3 -2 -2 -1 -2 -2 -2 -3 -3 -3 -4 -3 -2 -2 -4 -4 -4 -4 -4 -4 -4 -4 -4 -3 -3 -3 -3 -3 -2 -2 -2 -2 -2 -2 -2 -2 -2 -2 -3 -3 -3 -3 -3 -3
-3 -3 -2 -2 -2 -2 -1 -3 -3 -3 -4 -5 -4 -5 -5 -5 -5 -4 -4 -4 -4 -4 -4 -4 -3 -3 -3 -3 -3 -3 -3 -3 -3 -3 -3 -3 -3 -3 -3 -4 -4 -4 -4 -4
-4 -3 -3 -3 -3 -3 -2 -3 -4 -4 -4 -5 -5 -5 -5 -5 -5 -5 -4 -5 -5 -4 -4 -4 -4 -4 -3 -3 -3 -4 -4 -4 -4 -4 -4 -4 -4 -4 -4 -4 -4 -4 -5 -5
-5 -4 -4 -4 -3 -2 -2 -4 -4 -4 -4 -5 -6 -6 -6 -6 -5 -5 -5 -5 -5 -5 -4 -4 -4 -4 -4 -4 -4 -4 -4 -4 -4 -4 -5 -5 -5 -5 -5 -5 -5 -5 -6 -6
-5 -5 -5 -5 -4 -4 -5 -5 -4 -3 -3 -5 -5 -5 -6 -6 -6 -5 -5 -5 -5 -5 -5 -5 -5 -5 -5 -5 -5 -5 -5 -5 -5 -5 -5 -5 -6 -6 -6 -6 -6 -6 -6 -7
-5 -5 -5 -5 -5 -4 -6 -6 -5 -4 -5 -5 -5 -5 -6 -6 -6 -6 -6 -6 -6 -6 -5 -5 -6 -6 -6 -6 -6 -6 -6 -6 -6 -6 -6 -6 -6 -7 -7 -7 -7 -7 -7 -7
-6 -6 -6 -5 -4 -5 -5 -5 -5 -5 -5 -5 -5 -6 -6 -6 -7 -7 -7 -7 -7 -7 -7 -6 -6 -7 -7 -7 -7 -7 -7 -7 -7 -7 -7 -7 -7 -7 -7 -7 -8 -8 -8 -8
-7 -8 -7 -7 -7 -6 -6 -5 -5 -5 -5 -6 -6 -6 -6 -7 -7 -7 -7 -7 -7 -7 -7 -7 -7 -7 -7 -7 -7 -8 -8 -8 -8 -8 -8 -8 -8 -8 -8 -8 -8 -9 -9 -9
-7 -8 -8 -7 -7 -7 -6 -6 -5 -6 -6 -6 -6 -6 -7 -7 -7 -7 -8 -8 -8 -8 -8 -8 -8 -8 -8 -8 -8 -8 -8 -8 -8 -8 -8 -8 -9 -9 -9 -9 -9 -9 -9 -10
-9 -9 -8 -6 -6 -7 -6 -5 -6 -6 -6 -7 -7 -7 -7 -7 -8 -8 -8 -8 -8 -9 -9 -9 -9 -9 -9 -9 -9 -9 -9 -9 -9 -9 -9 -9 -9 -10 -10 -10 -10 -10 -10 -10
Wind_Speed
2 3 3 5 6 4 3 3 4 4 3 3 6 8 8 3 3 4 3 3 4 5 3 2 3 3 3 3 5 7 8 7 7 5 5 4 3 2 2 3 5 6 7 8
3 3 5 3 3 2 3 4 5 4 2 3 4 7 6 4 3 3 4 4 4 3 2 1 2 3 4 4 5 6 8 8 8 6 4 3 4 3 3 3 4 5 7 7
3 3 2 1 1 2 3 4 4 4 2 1 3 7 4 3 1 1 1 2 2 3 3 2 2 3 4 4 6 6 7 8 7 7 5 5 4 3 2 2 2 3 5 6
1 3 1 1 2 2 5 3 3 2 1 4 1 5 6 3 3 3 3 3 3 3 2 1 1 2 4 4 4 5 6 7 7 8 8 8 6 5 4 4 3 3 5 6
2 2 1 2 4 3 3 1 2 2 2 3 2 3 7 1 4 5 4 3 3 2 2 2 2 3 2 3 3 4 5 6 7 7 8 8 6 4 4 4 5 4 3 4
3 2 1 3 2 2 1 1 1 2 2 4 5 5 6 2 4 4 4 3 3 2 2 1 1 1 1 2 2 3 5 5 6 7 7 7 7 7 7 6 5 4 3 3
4 3 2 0 1 2 2 3 2 2 1 6 2 4 6 3 2 3 4 4 3 2 1 1 1 1 1 2 2 2 3 5 5 6 6 7 7 8 8 7 6 5 4 3
1 5 2 1 1 2 3 4 4 3 4 4 1 5 5 1 2 3 3 2 1 1 1 1 2 2 2 2 2 2 3 4 5 6 6 6 6 5 5 6 6 5 4 4
2 5 2 1 1 3 3 3 2 3 1 2 4 4 5 2 5 5 4 3 2 2 2 1 1 2 2 2 2 3 3 3 4 5 5 5 6 5 5 5 5 4 4 4
2 3 4 3 1 1 2 4 3 2 2 4 4 4 4 4 5 6 6 5 5 3 2 1 0 1 1 1 1 2 3 3 3 4 5 4 5 5 5 5 5 5 5 5
1 2 3 1 2 4 2 2 2 2 2 3 4 5 2 2 3 4 5 5 4 3 3 2 2 1 1 1 1 1 2 2 3 3 4 4 5 5 5 5 5 5 5 5
2 2 3 5 3 1 3 4 4 3 4 3 3 5 2 1 3 4 5 5 4 3 3 2 2 2 2 2 1 1 2 2 2 3 4 4 4 5 5 5 5 5 5 5
2 2 2 3 1 1 1 2 3 3 2 3 4 5 1 3 5 5 5 5 4 3 3 3 2 2 2 2 2 1 1 2 2 3 4 4 4 5 5 5 5 5 5 5
1 2 5 6 5 3 3 3 3 4 4 4 6 7 6 6 6 7 6 5 4 3 3 2 2 2 2 1 1 1 1 1 2 3 3 4 4 4 4 5 5 5 5 5
2 3 4 5 4 3 4 4 4 7 7 7 7 7 9 6 5 5 5 4 4 4 4 3 2 2 2 2 2 1 1 1 2 3 3 2 3 3 4 4 5 5 5 5
1 2 2 4 3 2 4 5 6 6 5 6 6 9 6 4 3 4 3 3 4 5 4 3 2 2 2 1 1 1 1 1 2 2 2 2 3 4 4 4 5 5 4 4
2 3 1 4 3 3 6 6 7 4 5 6 8 8 5 5 5 4 4 3 4 5 5 4 3 2 2 1 0 0 1 1 2 2 2 3 3 3 3 4 4 4 4 4
4 3 2 2 2 5 6 1 4 5 5 5 5 4 4 5 6 4 2 2 4 5 4 4 3 2 2 1 1 1 2 2 2 2 2 2 3 3 3 4 4 4 4 4
3 4 2 2 3 7 5 1 2 4 6 4 5 5 4 3 3 3 1 2 3 3 3 3 2 1 1 1 2 3 3 3 3 2 2 2 3 3 4 4 4 4 4 3
2 2 3 2 3 6 5 1 1 2 5 2 2 3 3 2 2 4 4 4 4 3 3 2 2 2 2 2 2 3 3 3 2 1 1 2 2 3 3 4 3 3 3 3
1 1 2 4 5 7 4 2 2 3 5 3 3 3 3 3 4 4 3 3 3 3 3 3 3 3 2 3 3 3 3 2 1 1 2 2 2 2 3 3 3 4 4 3
5 4 4 3 4 7 2 3 4 5 2 2 2 2 2 3 3 3 2 2 3 4 4 3 3 3 3 3 3 3 2 2 2 2 2 2 2 2 2 3 4 4 4 4
6 6 5 7 7 3 3 4 3 1 1 2 2 2 1 2 2 2 1 2 2 2 3 3 3 3 4 3 3 2 2 2 3 3 3 2 2 2 2 3 3 3 3 3
4 2 3 5 7 5 5 4 3 2 2 2 2 1 1 1 1 1 0 1 2 2 2 3 3 3 3 3 3 2 2 3 3 3 3 3 2 2 2 2 2 2 3 3
4 3 3 6 6 4 4 4 3 2 1 1 1 1 1 1 1 1 0 0 0 1 2 2 2 2 2 3 3 3 2 3 3 3 2 2 2 2 2 1 1 1 2 3
4 5 5 6 4 4 4 3 1 1 2 1 0 1 1 1 2 1 1 1 1 1 1 2 2 2 2 3 3 3 2 2 3 2 2 2 1 1 1 1 1 1 0 1
Wind_Direction
38 78 218 230 218 228 204 205 235 244 230 209 239 261 272 258 229 235 237 236 244 246 259 238 205 180 162 165 170 170 165 162 155 152 149 146 148 137 119 115 128 131 134 136
44 261 254 247 222 215 214 233 253 279 254 220 258 271 270 246 223 223 227 233 244 265 316 295 216 180 177 182 182 174 172 167 166 165 154 143 137 136 128 118 122 130 135 140
190 262 282 194 151 219 238 223 234 254 303 267 299 290 268 259 232 287 253 239 239 234 239 244 217 198 180 186 191 185 178 170 165 153 135 123 108 99 119 134 142 130 140 144
250 289 291 200 210 207 250 241 225 228 236 274 201 278 273 255 276 283 275 260 252 253 242 218 194 196 194 198 189 183 172 168 163 156 159 158 161 165 175 164 160 138 142 147
271 305 270 233 244 218 236 284 219 212 196 281 222 222 283 293 272 280 278 271 260 251 227 209 204 202 193 180 173 172 162 162 163 163 167 166 164 157 146 141 146 147 135 145
271 281 241 238 267 216 201 41 46 63 102 260 226 196 278 258 252 291 290 284 270 251 236 215 167 123 136 129 136 145 156 161 164 165 166 168 166 156 152 156 161 158 147 138
320 305 326 342 27 3 59 88 9 335 266 248 200 198 249 261 281 273 279 275 276 255 211 178 135 150 151 143 136 140 157 166 166 166 170 173 170 166 170 172 173 167 163 167
294 284 276 330 193 212 216 159 175 218 233 274 247 226 247 275 340 335 315 295 298 300 285 210 188 175 167 159 153 157 166 168 167 170 176 173 169 170 173 172 171 175 177 175
206 259 307 303 291 151 153 199 192 150 196 256 262 282 291 355 352 351 345 347 317 292 282 258 189 163 162 161 174 179 172 167 169 173 166 166 168 169 170 168 164 165 163 159
176 260 283 299 20 33 147 154 104 144 202 249 271 262 262 304 321 335 336 329 324 328 319 316 324 162 168 168 168 164 166 173 169 165 167 167 167 167 162 161 164 165 159 151
165 215 295 326 205 208 127 142 148 168 193 199 249 264 247 253 301 312 313 320 316 315 319 327 348 15 56 70 100 132 152 147 148 156 156 156 159 157 153 161 170 168 158 156
174 163 259 249 235 203 176 182 164 186 239 212 220 260 315 351 338 333 321 324 330 329 336 350 15 36 47 47 51 109 159 158 158 153 153 155 155 154 157 164 167 162 163 162
161 144 320 330 314 4 220 210 199 182 170 193 208 254 342 3 349 346 332 326 334 344 355 6 26 31 33 24 20 15 159 161 148 141 147 153 155 160 165 166 161 160 160 157
168 176 197 222 248 218 246 237 196 168 201 228 231 254 289 317 330 333 333 328 336 343 352 356 0 354 5 13 17 25 36 126 139 141 149 160 169 167 167 163 160 159 156 157
121 220 230 257 274 232 236 245 208 204 212 221 242 245 265 284 296 306 317 332 346 343 343 340 340 337 348 5 16 40 46 64 120 143 150 161 158 151 152 157 156 151 153 158
120 205 252 275 264 236 273 264 235 233 233 237 260 268 274 301 311 313 319 330 330 326 321 324 331 329 326 335 349 39 55 67 95 126 138 129 134 142 149 153 148 148 152 154
179 169 208 263 293 330 276 242 212 218 216 201 232 253 294 309 297 286 284 303 312 315 319 316 307 295 294 295 318 100 97 101 111 113 121 130 136 144 150 147 143 149 152 148
181 176 191 263 17 250 249 191 190 211 243 225 238 262 275 282 290 277 257 285 304 311 314 318 321 325 329 354 66 93 99 109 115 114 115 127 134 139 144 146 149 149 148 151
185 172 174 186 247 272 283 239 171 204 269 236 233 267 291 326 335 308 337 329 299 301 307 311 318 325 354 41 86 104 102 105 107 112 118 127 140 147 151 155 156 152 149 151
58 113 152 163 212 246 261 277 242 137 282 268 223 260 290 10 341 293 330 335 342 2 7 9 13 39 51 44 81 100 102 103 104 115 129 129 139 152 158 160 151 141 144 147
114 93 184 200 229 262 268 295 104 178 259 290 245 247 242 246 248 286 326 338 3 20 24 34 40 45 42 48 78 90 88 87 84 89 100 111 124 147 151 148 138 138 137 129
188 188 198 178 215 256 231 131 190 236 297 281 268 258 251 272 294 316 339 6 24 27 28 38 43 33 30 47 82 85 68 49 65 82 92 101 111 129 129 134 136 133 134 133
203 201 197 200 220 255 200 214 248 255 262 270 268 285 272 289 291 308 346 25 31 40 36 38 50 40 31 36 68 84 56 62 73 80 83 89 91 94 108 130 142 138 141 149
250 216 207 250 261 255 249 258 270 257 260 275 269 279 251 262 286 299 15 43 41 42 49 48 56 50 29 27 40 51 57 73 85 83 76 77 87 87 88 113 140 152 165 173
234 187 219 255 274 298 272 248 256 273 294 333 346 313 230 205 244 247 234 168 88 37 46 62 67 53 24 26 30 33 56 77 80 79 77 72 72 86 93 102 146 168 193 196
196 191 202 238 242 222 257 260 217 215 267 251 223 342 343 184 201 206 223 183 127 81 65 64 56 43 26 29 25 20 37 76 86 75 74 79 85 91 94 100 70 36 32 271
Height
1466 1470 1472 1472 1472 1472 1473 1475 1475 1475 1474 1475 1475 1473 1470 1469 1470 1469 1470 1470 1470 1470 1472 1473 1474 1476 1477 1480 1483 1485 1488 1491 1494 1497 1499 1502 1504 1507 1509 1512 1514 1516 1518 1519
1471 1472 1470 1470 1471 1472 1473 1474 1475 1474 1473 1474 1475 1472 1468 1467 1467 1467 1467 1467 1467 1468 1468 1469 1470 1472 1474 1476 1479 1482 1485 1488 1491 1494 1497 1500 1502 1505 1507 1509 1511 1513 1515 1516
1470 1471 1469 1469 1471 1472 1472 1473 1474 1474 1473 1473 1475 1470 1466 1464 1464 1464 1464 1465 1466 1466 1466 1466 1467 1469 1471 1473 1476 1479 1482 1484 1488 1491 1494 1497 1500 1502 1504 1506 1508 1510 1512 1514
1472 1470 1469 1469 1471 1471 1472 1471 1472 1473 1475 1477 1475 1476 1464 1463 1463 1462 1462 1462 1462 1463 1463 1464 1465 1466 1468 1471 1474 1477 1479 1482 1485 1488 1491 1493 1495 1498 1500 1503 1506 1507 1510 1512
1472 1471 1470 1470 1470 1470 1471 1470 1472 1473 1475 1478 1477 1478 1466 1464 1462 1460 1460 1460 1460 1461 1461 1462 1463 1465 1467 1470 1472 1474 1477 1480 1483 1485 1488 1491 1493 1495 1498 1500 1503 1505 1507 1509
1472 1470 1470 1469 1469 1470 1470 1472 1473 1476 1477 1478 1475 1478 1468 1466 1462 1459 1458 1458 1458 1459 1460 1461 1462 1464 1465 1467 1470 1472 1474 1477 1480 1483 1485 1488 1490 1492 1495 1497 1499 1502 1503 1506
1473 1471 1470 1469 1470 1470 1471 1474 1477 1476 1479 1475 1474 1474 1469 1462 1460 1459 1458 1457 1456 1457 1458 1458 1459 1461 1463 1465 1467 1469 1472 1475 1477 1480 1482 1484 1487 1489 1491 1494 1496 1498 1500 1502
1477 1475 1471 1470 1470 1472 1473 1473 1478 1479 1478 1476 1476 1473 1465 1460 1459 1458 1457 1456 1456 1456 1457 1457 1458 1459 1461 1463 1465 1467 1469 1472 1474 1477 1479 1482 1484 1486 1488 1491 1493 1494 1497 1499
1478 1475 1471 1470 1469 1470 1473 1475 1474 1480 1482 1481 1475 1472 1464 1460 1459 1458 1457 1455 1455 1455 1455 1456 1457 1458 1459 1461 1463 1465 1467 1470 1472 1474 1476 1479 1481 1483 1485 1487 1489 1491 1493 1495
1476 1479 1473 1471 1470 1471 1472 1474 1479 1479 1477 1474 1473 1472 1465 1461 1460 1458 1457 1456 1455 1454 1455 1455 1456 1457 1458 1460 1462 1463 1465 1467 1469 1471 1474 1476 1478 1480 1482 1484 1486 1488 1490 1492
1475 1479 1476 1473 1473 1472 1474 1476 1476 1479 1478 1476 1474 1469 1462 1461 1460 1460 1458 1456 1455 1454 1454 1454 1455 1455 1457 1458 1459 1461 1463 1465 1467 1469 1471 1473 1475 1477 1479 1481 1483 1485 1486 1488
1475 1478 1479 1474 1471 1471 1472 1473 1476 1476 1477 1480 1476 1472 1461 1461 1460 1460 1458 1456 1455 1454 1454 1454 1454 1454 1455 1456 1458 1459 1461 1463 1464 1466 1468 1470 1472 1474 1476 1478 1480 1482 1483 1485
1474 1478 1478 1472 1474 1474 1473 1473 1474 1474 1476 1479 1475 1469 1461 1461 1460 1459 1458 1456 1454 1454 1453 1453 1453 1453 1454 1455 1456 1457 1459 1461 1462 1464 1466 1467 1469 1471 1473 1475 1477 1479 1480 1482
1471 1475 1476 1472 1468 1470 1473 1472 1473 1473 1475 1475 1471 1466 1462 1461 1460 1458 1457 1456 1454 1453 1452 1452 1452 1452 1453 1453 1454 1455 1457 1458 1460 1461 1463 1464 1466 1468 1470 1472 1473 1475 1477 1478
1471 1474 1474 1472 1469 1469 1469 1469 1470 1471 1469 1469 1465 1465 1460 1460 1460 1458 1457 1455 1453 1452 1451 1451 1450 1450 1451 1451 1452 1453 1454 1456 1457 1458 1460 1462 1464 1465 1467 1469 1471 1472 1474 1475
1472 1474 1473 1471 1468 1468 1469 1467 1468 1467 1467 1467 1465 1463 1458 1459 1458 1457 1455 1454 1452 1451 1450 1450 1449 1449 1449 1450 1450 1451 1452 1453 1454 1456 1457 1459 1461 1462 1464 1466 1467 1469 1471 1473
1472 1473 1473 1471 1469 1468 1468 1465 1465 1466 1465 1464 1462 1459 1457 1457 1456 1455 1453 1452 1451 1450 1449 1448 1448 1448 1448 1448 1449 1449 1450 1451 1452 1454 1455 1457 1458 1460 1461 1463 1465 1466 1468 1470
1471 1472 1473 1472 1473 1472 1461 1460 1460 1461 1460 1460 1458 1457 1457 1456 1454 1453 1452 1451 1450 1449 1448 1447 1447 1447 1447 1447 1448 1448 1449 1450 1450 1452 1453 1454 1456 1457 1459 1460 1462 1463 1465 1467
1468 1470 1473 1474 1475 1468 1460 1459 1461 1462 1459 1457 1457 1456 1455 1454 1452 1451 1451 1450 1449 1448 1447 1446 1446 1445 1445 1446 1446 1446 1447 1448 1449 1450 1451 1452 1453 1454 1456 1457 1459 1461 1462 1464
1469 1469 1473 1475 1471 1466 1458 1458 1457 1460 1459 1454 1454 1454 1454 1453 1454 1452 1449 1448 1447 1447 1446 1445 1444 1444 1444 1444 1444 1445 1445 1446 1447 1448 1449 1450 1451 1452 1453 1455 1456 1458 1460 1461
1472 1474 1474 1475 1474 1466 1460 1458 1458 1461 1454 1453 1451 1452 1452 1452 1452 1451 1448 1447 1446 1445 1444 1444 1443 1443 1443 1443 1443 1444 1444 1445 1446 1446 1447 1448 1449 1450 1451 1452 1454 1455 1457 1459
1470 1472 1474 1474 1473 1465 1457 1457 1458 1454 1451 1450 1450 1450 1450 1449 1449 1448 1447 1445 1444 1443 1443 1442 1442 1442 1443 1443 1443 1443 1443 1444 1445 1445 1445 1446 1447 1448 1449 1450 1452 1453 1455 1456
1467 1466 1465 1465 1460 1455 1453 1452 1451 1451 1450 1449 1449 1449 1448 1447 1446 1446 1445 1444 1443 1443 1442 1441 1441 1442 1443 1443 1443 1442 1443 1443 1443 1444 1444 1445 1446 1447 1448 1449 1450 1451 1452 1454
1462 1461 1461 1460 1453 1451 1450 1449 1449 1449 1448 1447 1447 1447 1446 1445 1445 1444 1443 1442 1442 1441 1441 1441 1441 1441 1441 1442 1442 1442 1442 1442 1442 1442 1443 1443 1444 1445 1446 1447 1448 1449 1450 1451
1457 1458 1458 1456 1450 1448 1446 1446 1446 1446 1445 1445 1445 1445 1444 1444 1443 1442 1441 1441 1440 1440 1440 1440 1440 1440 1440 1441 1441 1441 1441 1441 1441 1442 1442 1443 1443 1444 1444 1445 1446 1447 1448 1450
1453 1454 1455 1449 1446 1446 1444 1443 1443 1443 1443 1443 1442 1442 1442 1441 1441 1440 1440 1439 1439 1439 1439 1439 1439 1439 1440 1440 1440 1440 1441 1441 1441 1441 1441 1442 1442 1443 1443 1444 1445 1446 1447 1448